• In Hungary
  • List of Countries
  • For 7 days
  • Water Temperature
  • Satellite Maps
  • Weather Map
  • News
  • Weather Widgets
  • user-avatar
    Login

    Hourly Weather Stolpische

    Today, 16 October, Tuesday

    Time Temperature Precipitation Wind Pressure Humidity
    00:00 +10°C° 0 mm 2 mps 758 mmHg 61%
    01:00 +10°C° 0 mm 2 mps 758 mmHg 63%
    02:00 +10°C° 0 mm 1 mps 758 mmHg 65%
    03:00 +10°C° 0 mm 1 mps 758 mmHg 67%
    04:00 +10°C° 0 mm 1 mps 758 mmHg 69%
    05:00 +9°C° 0 mm 1 mps 758 mmHg 71%
    06:00 +10°C° 0 mm 1 mps 758 mmHg 71%
    07:00 +11°C° 0 mm 1 mps 758 mmHg 70%
    08:00 +10°C° 0 mm 2 mps 758 mmHg 70%
    09:00 +13°C° 0 mm 2 mps 758 mmHg 65%
    10:00 +16°C° 0 mm 2 mps 758 mmHg 59%
    11:00 +18°C° 0 mm 2 mps 758 mmHg 54%
    12:00 +19°C° 0 mm 2 mps 757 mmHg 52%
    13:00 +19°C° 0 mm 2 mps 757 mmHg 50%
    14:00 +20°C° 0 mm 2 mps 757 mmHg 49%
    15:00 +19°C° 0 mm 2 mps 757 mmHg 54%
    16:00 +18°C° 0 mm 2 mps 757 mmHg 60%
    17:00 +16°C° 0 mm 1 mps 757 mmHg 65%
    18:00 +16°C° 0 mm 2 mps 757 mmHg 68%
    19:00 +15°C° 0 mm 2 mps 756 mmHg 71%
    20:00 +14°C° 0 mm 2 mps 756 mmHg 74%
    21:00 +14°C° 0 mm 2 mps 756 mmHg 75%
    22:00 +14°C° 0 mm 2 mps 756 mmHg 77%
    23:00 +13°C° 0 mm 2 mps 757 mmHg 79%

    Tomorrow, 17 October, Wednesday

    Time Temperature Precipitation Wind Pressure Humidity
    00:00 +13°C° 0 mm 2 mps 757 mmHg 81%
    01:00 +13°C° 0 mm 1 mps 757 mmHg 83%
    02:00 +12°C° 0 mm 1 mps 757 mmHg 84%
    03:00 +12°C° 0 mm 1 mps 757 mmHg 85%
    04:00 +12°C° 0 mm 1 mps 757 mmHg 86%
    05:00 +12°C° 0 mm 1 mps 756 mmHg 87%
    06:00 +12°C° 0 mm 1 mps 757 mmHg 84%
    07:00 +13°C° 0 mm 1 mps 757 mmHg 82%
    08:00 +13°C° 0 mm 1 mps 757 mmHg 80%
    09:00 +15°C° 0 mm 1 mps 757 mmHg 72%
    10:00 +18°C° 0 mm 1 mps 757 mmHg 65%
    11:00 +20°C° 0 mm 1 mps 757 mmHg 57%
    12:00 +21°C° 0 mm 1 mps 757 mmHg 54%
    13:00 +22°C° 0 mm 1 mps 757 mmHg 52%
    14:00 +23°C° 0 mm 1 mps 756 mmHg 49%
    15:00 +21°C° 0 mm 1 mps 756 mmHg 54%
    16:00 +20°C° 0 mm 1 mps 756 mmHg 60%
    17:00 +18°C° 0 mm 1 mps 756 mmHg 66%
    18:00 +16°C° 0 mm 1 mps 756 mmHg 68%
    19:00 +16°C° 0 mm 1 mps 756 mmHg 71%
    20:00 +15°C° 0 mm 1 mps 756 mmHg 74%
    21:00 +15°C° 0 mm 1 mps 756 mmHg 75%
    22:00 +14°C° 0 mm 1 mps 756 mmHg 77%
    23:00 +14°C° 0 mm 1 mps 756 mmHg 79%

    Day after tomorrow, 18 October, Thursday

    Time Temperature Precipitation Wind Pressure Humidity
    00:00 +14°C° 0 mm 1 mps 756 mmHg 80%
    01:00 +13°C° 0 mm 1 mps 756 mmHg 82%
    02:00 +13°C° 0 mm 1 mps 756 mmHg 83%
    03:00 +13°C° 0 mm 1 mps 756 mmHg 84%
    04:00 +13°C° 0 mm 1 mps 756 mmHg 85%
    05:00 +12°C° 0 mm 1 mps 755 mmHg 86%
    06:00 +13°C° 0 mm 2 mps 755 mmHg 85%
    07:00 +13°C° 0 mm 2 mps 755 mmHg 83%
    08:00 +14°C° 0 mm 2 mps 755 mmHg 81%
    09:00 +16°C° 0 mm 2 mps 755 mmHg 74%
    10:00 +17°C° 0 mm 2 mps 755 mmHg 67%
    11:00 +19°C° 0 mm 2 mps 755 mmHg 60%
    12:00 +20°C° 0 mm 2 mps 754 mmHg 57%
    13:00 +21°C° 0 mm 2 mps 754 mmHg 55%
    14:00 +23°C° 0 mm 2 mps 754 mmHg 52%
    15:00 +20°C° 0 mm 2 mps 753 mmHg 58%
    16:00 +19°C° 0 mm 2 mps 753 mmHg 64%
    17:00 +17°C° 0 mm 2 mps 753 mmHg 69%
    18:00 +16°C° 0 mm 2 mps 753 mmHg 72%
    19:00 +16°C° 0 mm 2 mps 753 mmHg 75%
    20:00 +15°C° 0 mm 2 mps 753 mmHg 78%
    21:00 +14°C° 0 mm 2 mps 753 mmHg 79%
    22:00 +14°C° 0 mm 2 mps 752 mmHg 81%
    23:00 +14°C° 0 mm 2 mps 752 mmHg 83%

    19 October, Friday

    Time Temperature Precipitation Wind Pressure Humidity
    00:00 +13°C° 0 mm 2 mps 752 mmHg 84%
    01:00 +13°C° 0 mm 1 mps 752 mmHg 86%
    02:00 +12°C° 0 mm 1 mps 752 mmHg 87%
    03:00 +12°C° 0 mm 1 mps 752 mmHg 88%
    04:00 +12°C° 0 mm 1 mps 751 mmHg 89%
    05:00 +11°C° 0 mm 1 mps 751 mmHg 89%
    06:00 +12°C° 0 mm 1 mps 751 mmHg 88%
    07:00 +12°C° 0 mm 1 mps 751 mmHg 86%
    08:00 +12°C° 0 mm 1 mps 751 mmHg 84%
    09:00 +14°C° 0 mm 1 mps 751 mmHg 76%
    10:00 +16°C° 0 mm 1 mps 751 mmHg 68%
    11:00 +19°C° 0 mm 1 mps 751 mmHg 60%
    12:00 +19°C° 0 mm 1 mps 751 mmHg 57%
    13:00 +20°C° 0 mm 1 mps 750 mmHg 54%
    14:00 +21°C° 0 mm 1 mps 750 mmHg 51%
    15:00 +19°C° 0 mm 1 mps 750 mmHg 56%
    16:00 +18°C° 0 mm 1 mps 750 mmHg 61%
    17:00 +15°C° 0 mm 1 mps 750 mmHg 66%
    18:00 +15°C° 0 mm 1 mps 750 mmHg 67%
    19:00 +15°C° 0 mm 1 mps 750 mmHg 69%
    20:00 +14°C° 0 mm 1 mps 750 mmHg 71%
    21:00 +14°C° 0 mm 1 mps 750 mmHg 72%
    22:00 +14°C° 0 mm 1 mps 750 mmHg 74%
    23:00 +13°C° 0 mm 1 mps 750 mmHg 76%

    20 October, Saturday

    Time Temperature Precipitation Wind Pressure Humidity
    00:00 +13°C° 0 mm 1 mps 750 mmHg 78%
    01:00 +13°C° 0 mm 1 mps 750 mmHg 80%
    02:00 +12°C° 0 mm 1 mps 750 mmHg 83%
    03:00 +12°C° 0 mm 1 mps 750 mmHg 85%
    04:00 +12°C° 0 mm 2 mps 750 mmHg 86%
    05:00 +10°C° 0 mm 2 mps 750 mmHg 88%
    06:00 +10°C° 0 mm 2 mps 750 mmHg 88%
    07:00 +12°C° 0 mm 2 mps 750 mmHg 88%
    08:00 +12°C° 0 mm 2 mps 750 mmHg 88%
    09:00 +13°C° 0 mm 2 mps 750 mmHg 83%
    10:00 +14°C° 0 mm 2 mps 750 mmHg 78%
    11:00 +15°C° 0 mm 2 mps 750 mmHg 72%
    12:00 +16°C° 0 mm 2 mps 750 mmHg 71%
    13:00 +16°C° 0 mm 2 mps 750 mmHg 69%
    14:00 +16°C° 0 mm 2 mps 750 mmHg 67%
    15:00 +16°C° 0 mm 2 mps 750 mmHg 71%
    16:00 +15°C° 0 mm 2 mps 750 mmHg 74%
    17:00 +14°C° 0 mm 2 mps 749 mmHg 77%
    18:00 +14°C° 0 mm 2 mps 750 mmHg 79%
    19:00 +13°C° 0 mm 2 mps 750 mmHg 81%
    20:00 +13°C° 0 mm 2 mps 750 mmHg 83%
    21:00 +12°C° 0 mm 2 mps 750 mmHg 84%
    22:00 +12°C° 0 mm 2 mps 750 mmHg 85%
    23:00 +12°C° 0 mm 2 mps 750 mmHg 86%

    21 October, Sunday

    Time Temperature Precipitation Wind Pressure Humidity
    00:00 +10°C° 0 mm 2 mps 749 mmHg 87%
    01:00 +10°C° 0 mm 2 mps 749 mmHg 88%
    02:00 +10°C° 0 mm 2 mps 749 mmHg 89%
    03:00 +9°C° 0 mm 2 mps 749 mmHg 89%
    04:00 +9°C° 0 mm 2 mps 749 mmHg 90%
    05:00 +8°C° 0 mm 2 mps 749 mmHg 90%
    06:00 +8°C° 0 mm 3 mps 749 mmHg 87%
    07:00 +8°C° 0 mm 3 mps 749 mmHg 84%
    08:00 +8°C° 0 mm 3 mps 750 mmHg 81%
    09:00 +9°C° 0 mm 3 mps 750 mmHg 74%
    10:00 +10°C° 0 mm 3 mps 750 mmHg 67%
    11:00 +11°C° 0 mm 4 mps 750 mmHg 59%
    12:00 +12°C° 0 mm 4 mps 750 mmHg 57%
    13:00 +12°C° 0 mm 4 mps 750 mmHg 54%
    14:00 +12°C° 0 mm 4 mps 750 mmHg 51%
    15:00 +11°C° 0 mm 3 mps 750 mmHg 54%
    16:00 +10°C° 0 mm 3 mps 750 mmHg 58%
    17:00 +9°C° 0 mm 3 mps 750 mmHg 61%
    18:00 +8°C° 0 mm 3 mps 750 mmHg 64%
    19:00 +7°C° 0 mm 3 mps 751 mmHg 67%
    20:00 +5°C° 0 mm 3 mps 751 mmHg 71%
    21:00 +5°C° 0 mm 3 mps 751 mmHg 74%
    22:00 +5°C° 0 mm 2 mps 751 mmHg 77%
    23:00 +5°C° 0 mm 2 mps 751 mmHg 81%
    Show more